Voltar ao catálogo

STARLINK-31735

AtivoComunicaçõesVLEO
NORAD 60054·PAYLOAD·🇺🇸 United States

Lançado Jun 8, 2024 de Vandenberg Space Force Base

Loading…

Próximas Passagens (próximas 24 horas)

TLE

AtualizadoSource: CelesTrak SupGP

Época: Sep 14, 2026, 22:43 UTC

1 60054C 24112S   26257.94701389  .00047591  00000+0  14063-2 0  2576
2 60054  53.1578 277.7109 0001157  86.0730 133.2738 15.34362705    11

Acompanhe STARLINK-31735 em tempo real com AllMySat

Download on the App Store